EDT,Max TemperatureF,Mean TemperatureF,Min TemperatureF,Max Dew PointF,MeanDew PointF,Min DewpointF,Max Humidity, Mean Humidity, Min Humidity, Max Sea Level PressureIn, Mean Sea Level PressureIn, Min Sea Level PressureIn, Max VisibilityMiles, Mean VisibilityMiles, Min VisibilityMiles, Max Wind SpeedMPH, Mean Wind SpeedMPH, Max Gust SpeedMPH,PrecipitationIn, CloudCover, Events, WindDirDegrees
2013-9-1,90,78,65,72,67,64,93,72,50,29.86,29.82,29.77,10,8,2,25,2,31,0.38,3,Rain,30
2013-9-2,89,79,69,70,67,65,90,68,46,29.82,29.78,29.73,10,10,6,14,4,18,0.00,2,,250
2013-9-3,82,73,64,65,58,52,87,63,39,30.01,29.88,29.76,10,10,9,17,7,24,0.00,1,,310
2013-9-4,81,67,53,56,52,47,93,62,30,30.12,30.06,30.01,10,10,10,12,4,15,0.00,0,,263
2013-9-5,81,70,59,60,54,46,78,59,39,30.16,30.08,30.05,10,10,10,18,8,23,0.00,1,,285
2013-9-6,74,63,51,49,46,43,83,59,35,30.29,30.21,30.16,10,10,10,10,4,16,0.00,0,,16
2013-9-7,82,65,47,54,50,44,93,61,28,30.16,30.06,29.96,10,10,8,10,2,17,0.00,0,,253
2013-9-8,85,73,61,63,60,55,84,66,48,30.08,29.95,29.91,10,10,10,14,4,17,T,4,,352
2013-9-9,77,68,59,62,55,48,93,72,50,30.22,30.15,30.10,10,10,10,12,3,17,0.00,4,,68
2013-9-10,92,77,62,70,66,61,93,70,47,30.17,30.13,30.08,10,9,5,14,3,23,0.00,1,,225
2013-9-11,92,81,70,73,70,68,93,72,50,30.17,30.09,30.02,10,6,2,28,2,37,0.06,2,Rain-Thunderstorm,210
2013-9-12,93,81,68,70,66,59,93,66,38,30.01,29.90,29.75,10,7,2,21,6,29,T,2,Rain,252
2013-9-13,76,66,56,63,52,43,78,57,36,29.98,29.83,29.74,10,10,10,24,11,30,T,4,Rain,326
2013-9-14,67,56,45,44,41,38,86,63,40,30.19,30.09,30.00,10,10,10,17,6,21,0.00,1,,323
2013-9-15,77,60,42,56,48,40,92,65,38,30.24,30.16,30.09,10,9,7,12,3,16,0.00,1,,160
2013-9-16,71,63,54,57,54,49,87,66,44,30.26,30.14,30.04,10,9,4,14,5,22,0.14,5,Rain,326
2013-9-17,68,56,44,50,41,37,83,59,34,30.45,30.37,30.28,10,10,2,9,3,16,0.00,0,,29
2013-9-18,72,55,38,46,42,36,92,64,35,30.35,30.28,30.19,10,10,10,12,2,18,0.00,0,,152
2013-9-19,78,62,46,56,51,45,93,70,46,30.20,30.14,30.08,10,10,6,8,1,23,0.00,4,,154
2013-9-20,81,66,51,61,55,50,100,74,48,30.09,30.04,29.95,10,7,0,13,4,24,0.00,3,Fog,152
2013-9-21,70,64,58,63,60,57,97,85,73,29.93,29.78,29.69,10,7,1,21,5,26,0.66,7,Rain,164
2013-9-22,72,63,53,57,50,43,100,71,41,29.99,29.85,29.75,10,9,2,20,8,25,0.00,2,,320
2013-9-23,65,54,43,45,42,39,86,65,43,30.13,30.07,29.99,10,10,10,14,6,32,0.00,4,,341
2013-9-24,73,56,38,46,42,36,93,64,35,30.14,30.07,29.97,10,8,2,8,1,,0.00,0,,316
2013-9-25,75,58,41,49,43,39,96,66,35,30.02,29.97,29.91,10,9,1,8,0,18,0.00,0,,5
2013-9-26,76,61,45,50,46,41,100,65,29,30.09,30.02,29.95,10,10,2,10,2,15,0.00,0,,333
2013-9-27,73,60,46,54,50,44,93,71,49,30.25,30.18,30.09,10,10,2,7,1,10,0.00,4,,75
2013-9-28,67,58,48,54,50,46,96,74,52,30.33,30.27,30.24,10,6,0,6,1,9,0.00,5,Fog,63
2013-9-29,73,59,44,53,47,43,100,70,40,30.23,30.17,30.08,10,5,0,8,1,15,0.00,2,Fog,90
2013-9-30,77,61,44,53,48,43,93,66,38,30.11,30.06,29.99,10,10,9,7,2,12,0.00,1,,148